Terminal Aerodrome Forecast
Issued by NWS Topeka, KS

Home | Current Version | Previous Version | Text Only | Print | Product List | Glossary Off
Versions: 1 2 3 4 5 6 7 8 9 10 11 12 13 14 15

000
FTUS43 KTOP 162300 RRA
TAFTOP
TAF
KTOP 162348Z 1700/1724 21014G23KT P6SM SCT150
     FM170100 31012KT P6SM BKN120
     FM170700 34006KT P6SM BKN080=

USA.gov is the U.S. government's official web portal to all federal, state and local government web resources and services.